owner,sensor,date,latitude,longitude,vertical_datum,sea_water_temperature,qcFlag
Chevron,ioos:station:wmo:42876:1,2022-04-01T00:09:00Z,0.0000,0.0000,2.0,23.0,11111222
Chevron,ioos:station:wmo:42876:1,2022-04-01T00:19:00Z,0.0000,0.0000,1.8,23.0,11111222
Chevron,ioos:station:wmo:42876:1,2022-04-01T00:29:00Z,0.0000,0.0000,1.7,23.0,11111222
Chevron,ioos:station:wmo:42876:1,2022-04-01T00:39:00Z,0.0000,0.0000,1.9,23.0,11111222
Chevron,ioos:station:wmo:42876:1,2022-04-01T00:49:00Z,0.0000,0.0000,1.7,23.0,11111222
Chevron,ioos:station:wmo:42876:1,2022-04-01T00:59:00Z,0.0000,0.0000,1.6,23.1,11111222
Chevron,ioos:station:wmo:42876:1,2022-04-01T01:09:00Z,0.0000,0.0000,2.0,23.1,11111222
Chevron,ioos:station:wmo:42876:1,2022-04-01T01:19:00Z,0.0000,0.0000,1.9,23.1,11111222
Chevron,ioos:station:wmo:42876:1,2022-04-01T01:29:00Z,0.0000,0.0000,2.0,23.1,11111222
Chevron,ioos:station:wmo:42876:1,2022-04-01T01:39:00Z,0.0000,0.0000,2.1,23.2,11111222
Chevron,ioos:station:wmo:42876:1,2022-04-01T01:49:00Z,0.0000,0.0000,2.2,23.2,11111222
Chevron,ioos:station:wmo:42876:1,2022-04-01T01:59:00Z,0.0000,0.0000,2.2,23.2,11111222
Chevron,ioos:station:wmo:42876:1,2022-04-01T02:09:00Z,0.0000,0.0000,2.2,23.3,11111222
Chevron,ioos:station:wmo:42876:1,2022-04-01T02:19:00Z,0.0000,0.0000,2.3,23.3,11111222
Chevron,ioos:station:wmo:42876:1,2022-04-01T02:29:00Z,0.0000,0.0000,2.1,23.3,11111222
Chevron,ioos:station:wmo:42876:1,2022-04-01T02:39:00Z,0.0000,0.0000,2.0,23.3,11111222
Chevron,ioos:station:wmo:42876:1,2022-04-01T02:49:00Z,0.0000,0.0000,2.2,23.3,11111222
Chevron,ioos:station:wmo:42876:1,2022-04-01T02:59:00Z,0.0000,0.0000,2.3,23.3,11111222
Chevron,ioos:station:wmo:42876:1,2022-04-01T03:09:00Z,0.0000,0.0000,2.3,23.3,11111222
Chevron,ioos:station:wmo:42876:1,2022-04-01T03:19:00Z,0.0000,0.0000,2.3,23.3,11111222
Chevron,ioos:station:wmo:42876:1,2022-04-01T03:29:00Z,0.0000,0.0000,2.4,23.4,11111222
Chevron,ioos:station:wmo:42876:1,2022-04-01T03:39:00Z,0.0000,0.0000,2.3,23.4,11111222
Chevron,ioos:station:wmo:42876:1,2022-04-01T03:49:00Z,0.0000,0.0000,2.1,23.4,11111222
Chevron,ioos:station:wmo:42876:1,2022-04-01T03:59:00Z,0.0000,0.0000,2.3,23.4,11111222
Chevron,ioos:station:wmo:42876:1,2022-04-01T04:09:00Z,0.0000,0.0000,2.4,23.4,11111222
Chevron,ioos:station:wmo:42876:1,2022-04-01T04:19:00Z,0.0000,0.0000,2.2,23.4,11111222
Chevron,ioos:station:wmo:42876:1,2022-04-01T04:29:00Z,0.0000,0.0000,2.4,23.4,11111222
Chevron,ioos:station:wmo:42876:1,2022-04-01T04:39:00Z,0.0000,0.0000,2.1,23.4,11111222
Chevron,ioos:station:wmo:42876:1,2022-04-01T04:49:00Z,0.0000,0.0000,2.4,23.4,11111222
Chevron,ioos:station:wmo:42876:1,2022-04-01T04:59:00Z,0.0000,0.0000,2.3,23.4,11111222
Chevron,ioos:station:wmo:42876:1,2022-04-01T05:09:00Z,0.0000,0.0000,2.2,23.4,11111222
Chevron,ioos:station:wmo:42876:1,2022-04-01T05:19:00Z,0.0000,0.0000,2.0,23.4,11111222
Chevron,ioos:station:wmo:42876:1,2022-04-01T05:29:00Z,0.0000,0.0000,1.9,23.4,11111222
Chevron,ioos:station:wmo:42876:1,2022-04-01T05:39:00Z,0.0000,0.0000,2.2,23.4,11111222
Chevron,ioos:station:wmo:42876:1,2022-04-01T05:49:00Z,0.0000,0.0000,2.3,23.4,11111222
Chevron,ioos:station:wmo:42876:1,2022-04-01T05:59:00Z,0.0000,0.0000,2.0,23.4,11111222
Chevron,ioos:station:wmo:42876:1,2022-04-01T06:09:00Z,0.0000,0.0000,2.1,23.4,11111222
Chevron,ioos:station:wmo:42876:1,2022-04-01T06:19:00Z,0.0000,0.0000,2.0,23.4,11111222
Chevron,ioos:station:wmo:42876:1,2022-04-01T06:29:00Z,0.0000,0.0000,2.1,23.4,11111222
Chevron,ioos:station:wmo:42876:1,2022-04-01T06:39:00Z,0.0000,0.0000,2.5,23.4,11111222
Chevron,ioos:station:wmo:42876:1,2022-04-01T06:49:00Z,0.0000,0.0000,2.5,23.4,11111222
Chevron,ioos:station:wmo:42876:1,2022-04-01T06:59:00Z,0.0000,0.0000,2.2,23.4,11111222
Chevron,ioos:station:wmo:42876:1,2022-04-01T07:09:00Z,0.0000,0.0000,2.4,23.4,11111222
Chevron,ioos:station:wmo:42876:1,2022-04-01T07:19:00Z,0.0000,0.0000,2.2,23.4,11111222
Chevron,ioos:station:wmo:42876:1,2022-04-01T07:29:00Z,0.0000,0.0000,2.5,23.4,11111222
Chevron,ioos:station:wmo:42876:1,2022-04-01T07:39:00Z,0.0000,0.0000,2.4,23.4,11111222
Chevron,ioos:station:wmo:42876:1,2022-04-01T07:49:00Z,0.0000,0.0000,2.5,23.4,11111222
Chevron,ioos:station:wmo:42876:1,2022-04-01T07:59:00Z,0.0000,0.0000,2.4,23.4,11111222
Chevron,ioos:station:wmo:42876:1,2022-04-01T08:09:00Z,0.0000,0.0000,2.6,23.4,11111222
Chevron,ioos:station:wmo:42876:1,2022-04-01T08:19:00Z,0.0000,0.0000,2.4,23.4,11111222
Chevron,ioos:station:wmo:42876:1,2022-04-01T08:29:00Z,0.0000,0.0000,2.4,23.4,11111222
Chevron,ioos:station:wmo:42876:1,2022-04-01T08:39:00Z,0.0000,0.0000,2.4,23.4,11111222
Chevron,ioos:station:wmo:42876:1,2022-04-01T08:49:00Z,0.0000,0.0000,2.3,23.4,11111222
Chevron,ioos:station:wmo:42876:1,2022-04-01T08:59:00Z,0.0000,0.0000,2.1,23.4,11111222
Chevron,ioos:station:wmo:42876:1,2022-04-01T09:09:00Z,0.0000,0.0000,2.4,23.4,11111222
Chevron,ioos:station:wmo:42876:1,2022-04-01T09:19:00Z,0.0000,0.0000,2.3,23.4,11111222
Chevron,ioos:station:wmo:42876:1,2022-04-01T09:29:00Z,0.0000,0.0000,2.4,23.4,11111222
Chevron,ioos:station:wmo:42876:1,2022-04-01T09:39:00Z,0.0000,0.0000,2.3,23.4,11111222
Chevron,ioos:station:wmo:42876:1,2022-04-01T09:49:00Z,0.0000,0.0000,2.4,23.4,11111222
Chevron,ioos:station:wmo:42876:1,2022-04-01T09:59:00Z,0.0000,0.0000,2.1,23.4,11111222
Chevron,ioos:station:wmo:42876:1,2022-04-01T10:09:00Z,0.0000,0.0000,2.5,23.4,11111222
Chevron,ioos:station:wmo:42876:1,2022-04-01T10:19:00Z,0.0000,0.0000,2.4,23.4,11111222
Chevron,ioos:station:wmo:42876:1,2022-04-01T10:29:00Z,0.0000,0.0000,2.6,23.3,11111222
Chevron,ioos:station:wmo:42876:1,2022-04-01T10:39:00Z,0.0000,0.0000,2.7,23.3,11111222
Chevron,ioos:station:wmo:42876:1,2022-04-01T10:49:00Z,0.0000,0.0000,2.3,23.3,11111222
Chevron,ioos:station:wmo:42876:1,2022-04-01T10:59:00Z,0.0000,0.0000,2.6,23.3,11111222
Chevron,ioos:station:wmo:42876:1,2022-04-01T11:09:00Z,0.0000,0.0000,2.7,23.3,11111222
Chevron,ioos:station:wmo:42876:1,2022-04-01T11:19:00Z,0.0000,0.0000,2.6,23.3,11111222
Chevron,ioos:station:wmo:42876:1,2022-04-01T11:29:00Z,0.0000,0.0000,2.4,23.3,11111222
Chevron,ioos:station:wmo:42876:1,2022-04-01T11:39:00Z,0.0000,0.0000,2.4,23.3,11111222
Chevron,ioos:station:wmo:42876:1,2022-04-01T11:49:00Z,0.0000,0.0000,2.4,23.3,11111222
Chevron,ioos:station:wmo:42876:1,2022-04-01T11:59:00Z,0.0000,0.0000,2.4,23.3,11111222
Chevron,ioos:station:wmo:42876:1,2022-04-01T12:09:00Z,0.0000,0.0000,2.4,23.3,11111222
Chevron,ioos:station:wmo:42876:1,2022-04-01T12:19:00Z,0.0000,0.0000,2.8,23.2,11111222
Chevron,ioos:station:wmo:42876:1,2022-04-01T12:29:00Z,0.0000,0.0000,2.4,23.2,11111222
Chevron,ioos:station:wmo:42876:1,2022-04-01T12:39:00Z,0.0000,0.0000,2.1,23.2,11111222
Chevron,ioos:station:wmo:42876:1,2022-04-01T12:49:00Z,0.0000,0.0000,2.4,23.2,11111222
Chevron,ioos:station:wmo:42876:1,2022-04-01T12:59:00Z,0.0000,0.0000,2.2,23.2,11111222
Chevron,ioos:station:wmo:42876:1,2022-04-01T13:09:00Z,0.0000,0.0000,2.1,23.2,11111222
Chevron,ioos:station:wmo:42876:1,2022-04-01T13:19:00Z,0.0000,0.0000,2.3,23.2,11111222
Chevron,ioos:station:wmo:42876:1,2022-04-01T13:29:00Z,0.0000,0.0000,2.0,23.2,11111222
Chevron,ioos:station:wmo:42876:1,2022-04-01T13:39:00Z,0.0000,0.0000,2.1,23.2,11111222
Chevron,ioos:station:wmo:42876:1,2022-04-01T13:49:00Z,0.0000,0.0000,2.3,23.1,11111222
Chevron,ioos:station:wmo:42876:1,2022-04-01T13:59:00Z,0.0000,0.0000,2.3,23.1,11111222
Chevron,ioos:station:wmo:42876:1,2022-04-01T14:09:00Z,0.0000,0.0000,2.4,23.1,11111222
Chevron,ioos:station:wmo:42876:1,2022-04-01T14:19:00Z,0.0000,0.0000,2.3,23.1,11111222
Chevron,ioos:station:wmo:42876:1,2022-04-01T14:29:00Z,0.0000,0.0000,2.5,23.1,11111222
Chevron,ioos:station:wmo:42876:1,2022-04-01T14:39:00Z,0.0000,0.0000,2.3,23.1,11111222
Chevron,ioos:station:wmo:42876:1,2022-04-01T14:49:00Z,0.0000,0.0000,2.8,23.1,11111222
Chevron,ioos:station:wmo:42876:1,2022-04-01T14:59:00Z,0.0000,0.0000,2.4,23.1,11111222
Chevron,ioos:station:wmo:42876:1,2022-04-01T15:09:00Z,0.0000,0.0000,2.5,23.1,11111222
Chevron,ioos:station:wmo:42876:1,2022-04-01T15:19:00Z,0.0000,0.0000,2.1,23.1,11111222
Chevron,ioos:station:wmo:42876:1,2022-04-01T15:29:00Z,0.0000,0.0000,2.7,23.1,11111222
Chevron,ioos:station:wmo:42876:1,2022-04-01T15:39:00Z,0.0000,0.0000,2.8,23.1,11111222
Chevron,ioos:station:wmo:42876:1,2022-04-01T15:49:00Z,0.0000,0.0000,2.6,23.1,11111222
Chevron,ioos:station:wmo:42876:1,2022-04-01T15:59:00Z,0.0000,0.0000,2.7,23.1,11111222
Chevron,ioos:station:wmo:42876:1,2022-04-01T16:09:00Z,0.0000,0.0000,2.5,23.1,11111222
Chevron,ioos:station:wmo:42876:1,2022-04-01T16:19:00Z,0.0000,0.0000,2.6,23.1,11111222
Chevron,ioos:station:wmo:42876:1,2022-04-01T16:29:00Z,0.0000,0.0000,2.5,23.1,11111222
Chevron,ioos:station:wmo:42876:1,2022-04-01T16:39:00Z,0.0000,0.0000,2.3,23.1,11111222
Chevron,ioos:station:wmo:42876:1,2022-04-01T16:49:00Z,0.0000,0.0000,2.4,23.1,11111222
Chevron,ioos:station:wmo:42876:1,2022-04-01T16:59:00Z,0.0000,0.0000,2.3,23.1,11111222
Chevron,ioos:station:wmo:42876:1,2022-04-01T17:09:00Z,0.0000,0.0000,2.7,23.1,11111222
Chevron,ioos:station:wmo:42876:1,2022-04-01T17:19:00Z,0.0000,0.0000,2.5,23.1,11111222
Chevron,ioos:station:wmo:42876:1,2022-04-01T17:29:00Z,0.0000,0.0000,2.1,23.1,11111222
Chevron,ioos:station:wmo:42876:1,2022-04-01T17:39:00Z,0.0000,0.0000,2.2,23.1,11111222
Chevron,ioos:station:wmo:42876:1,2022-04-01T17:49:00Z,0.0000,0.0000,2.3,23.1,11111222
Chevron,ioos:station:wmo:42876:1,2022-04-01T17:59:00Z,0.0000,0.0000,2.6,23.1,11111222
Chevron,ioos:station:wmo:42876:1,2022-04-01T18:09:00Z,0.0000,0.0000,2.2,23.1,11111222
Chevron,ioos:station:wmo:42876:1,2022-04-01T18:19:00Z,0.0000,0.0000,2.4,23.1,11111222
Chevron,ioos:station:wmo:42876:1,2022-04-01T18:29:00Z,0.0000,0.0000,2.3,23.1,11111222
Chevron,ioos:station:wmo:42876:1,2022-04-01T18:39:00Z,0.0000,0.0000,2.5,23.1,11111222
Chevron,ioos:station:wmo:42876:1,2022-04-01T18:49:00Z,0.0000,0.0000,2.4,23.1,11111222
Chevron,ioos:station:wmo:42876:1,2022-04-01T18:59:00Z,0.0000,0.0000,2.5,23.1,11111222
Chevron,ioos:station:wmo:42876:1,2022-04-01T19:09:00Z,0.0000,0.0000,2.5,23.1,11111222
Chevron,ioos:station:wmo:42876:1,2022-04-01T19:19:00Z,0.0000,0.0000,2.3,23.1,11111222
Chevron,ioos:station:wmo:42876:1,2022-04-01T19:29:00Z,0.0000,0.0000,2.8,23.1,11111222
Chevron,ioos:station:wmo:42876:1,2022-04-01T19:39:00Z,0.0000,0.0000,2.5,23.1,11111222
Chevron,ioos:station:wmo:42876:1,2022-04-01T19:49:00Z,0.0000,0.0000,2.9,23.2,11111222
Chevron,ioos:station:wmo:42876:1,2022-04-01T19:59:00Z,0.0000,0.0000,2.4,23.2,11111222
Chevron,ioos:station:wmo:42876:1,2022-04-01T20:09:00Z,0.0000,0.0000,2.5,23.2,11111222
Chevron,ioos:station:wmo:42876:1,2022-04-01T20:19:00Z,0.0000,0.0000,2.7,23.2,11111222
Chevron,ioos:station:wmo:42876:1,2022-04-01T20:29:00Z,0.0000,0.0000,2.6,23.2,11111222
Chevron,ioos:station:wmo:42876:1,2022-04-01T20:39:00Z,0.0000,0.0000,2.7,23.2,11111222
Chevron,ioos:station:wmo:42876:1,2022-04-01T20:49:00Z,0.0000,0.0000,2.6,23.2,11111222
Chevron,ioos:station:wmo:42876:1,2022-04-01T20:59:00Z,0.0000,0.0000,2.4,23.2,11111222
Chevron,ioos:station:wmo:42876:1,2022-04-01T21:09:00Z,0.0000,0.0000,2.6,23.2,11111222
Chevron,ioos:station:wmo:42876:1,2022-04-01T21:19:00Z,0.0000,0.0000,2.9,23.2,11111222
Chevron,ioos:station:wmo:42876:1,2022-04-01T21:29:00Z,0.0000,0.0000,2.7,23.2,11111222
Chevron,ioos:station:wmo:42876:1,2022-04-01T21:39:00Z,0.0000,0.0000,2.6,23.2,11111222
Chevron,ioos:station:wmo:42876:1,2022-04-01T21:49:00Z,0.0000,0.0000,2.6,23.2,11111222
Chevron,ioos:station:wmo:42876:1,2022-04-01T21:59:00Z,0.0000,0.0000,2.5,23.3,11111222
Chevron,ioos:station:wmo:42876:1,2022-04-01T22:09:00Z,0.0000,0.0000,2.5,23.3,11111222
Chevron,ioos:station:wmo:42876:1,2022-04-01T22:19:00Z,0.0000,0.0000,2.7,23.3,11111222
Chevron,ioos:station:wmo:42876:1,2022-04-01T22:29:00Z,0.0000,0.0000,2.5,23.3,11111222
Chevron,ioos:station:wmo:42876:1,2022-04-01T22:39:00Z,0.0000,0.0000,2.3,23.3,11111222
Chevron,ioos:station:wmo:42876:1,2022-04-01T22:49:00Z,0.0000,0.0000,2.5,23.3,11111222
Chevron,ioos:station:wmo:42876:1,2022-04-01T22:59:00Z,0.0000,0.0000,2.2,23.3,11111222
Chevron,ioos:station:wmo:42876:1,2022-04-01T23:09:00Z,0.0000,0.0000,2.3,23.3,11111222
Chevron,ioos:station:wmo:42876:1,2022-04-01T23:19:00Z,0.0000,0.0000,2.3,23.3,11111222
Chevron,ioos:station:wmo:42876:1,2022-04-01T23:29:00Z,0.0000,0.0000,2.3,23.3,11111222
Chevron,ioos:station:wmo:42876:1,2022-04-01T23:39:00Z,0.0000,0.0000,2.5,23.4,11111222
Chevron,ioos:station:wmo:42876:1,2022-04-01T23:49:00Z,0.0000,0.0000,2.5,23.4,11111222
Chevron,ioos:station:wmo:42876:1,2022-04-01T23:59:00Z,0.0000,0.0000,2.3,23.4,11111222
Chevron,ioos:station:wmo:42876:1,2022-04-02T00:09:00Z,0.0000,0.0000,2.2,23.4,11111222
Chevron,ioos:station:wmo:42876:1,2022-04-02T00:19:00Z,0.0000,0.0000,2.2,23.4,11111222
Chevron,ioos:station:wmo:42876:1,2022-04-02T00:29:00Z,0.0000,0.0000,2.1,23.4,11111222
Chevron,ioos:station:wmo:42876:1,2022-04-02T00:39:00Z,0.0000,0.0000,2.3,23.4,11111222
Chevron,ioos:station:wmo:42876:1,2022-04-02T00:49:00Z,0.0000,0.0000,2.3,23.4,11111222
Chevron,ioos:station:wmo:42876:1,2022-04-02T00:59:00Z,0.0000,0.0000,2.4,23.4,11111222
Chevron,ioos:station:wmo:42876:1,2022-04-02T01:09:00Z,0.0000,0.0000,2.4,23.4,11111222
Chevron,ioos:station:wmo:42876:1,2022-04-02T01:19:00Z,0.0000,0.0000,2.7,23.4,11111222
Chevron,ioos:station:wmo:42876:1,2022-04-02T01:29:00Z,0.0000,0.0000,2.3,23.5,11111222
Chevron,ioos:station:wmo:42876:1,2022-04-02T01:39:00Z,0.0000,0.0000,2.2,23.5,11111222
Chevron,ioos:station:wmo:42876:1,2022-04-02T01:49:00Z,0.0000,0.0000,2.4,23.5,11111222
Chevron,ioos:station:wmo:42876:1,2022-04-02T01:59:00Z,0.0000,0.0000,2.2,23.5,11111222
Chevron,ioos:station:wmo:42876:1,2022-04-02T02:09:00Z,0.0000,0.0000,2.2,23.5,11111222
Chevron,ioos:station:wmo:42876:1,2022-04-02T02:19:00Z,0.0000,0.0000,2.7,23.5,11111222
Chevron,ioos:station:wmo:42876:1,2022-04-02T02:29:00Z,0.0000,0.0000,2.7,23.5,11111222
Chevron,ioos:station:wmo:42876:1,2022-04-02T02:39:00Z,0.0000,0.0000,2.4,23.5,11111222
Chevron,ioos:station:wmo:42876:1,2022-04-02T02:49:00Z,0.0000,0.0000,2.5,23.5,11111222
Chevron,ioos:station:wmo:42876:1,2022-04-02T02:59:00Z,0.0000,0.0000,2.8,23.5,11111222
Chevron,ioos:station:wmo:42876:1,2022-04-02T03:09:00Z,0.0000,0.0000,2.3,23.5,11111222
Chevron,ioos:station:wmo:42876:1,2022-04-02T03:19:00Z,0.0000,0.0000,2.9,23.5,11111222
Chevron,ioos:station:wmo:42876:1,2022-04-02T03:29:00Z,0.0000,0.0000,2.4,23.5,11111222
Chevron,ioos:station:wmo:42876:1,2022-04-02T03:39:00Z,0.0000,0.0000,3.1,23.6,11111222
Chevron,ioos:station:wmo:42876:1,2022-04-02T03:49:00Z,0.0000,0.0000,2.7,23.6,11111222
Chevron,ioos:station:wmo:42876:1,2022-04-02T03:59:00Z,0.0000,0.0000,2.5,23.6,11111222
Chevron,ioos:station:wmo:42876:1,2022-04-02T04:09:00Z,0.0000,0.0000,2.5,23.6,11111222
Chevron,ioos:station:wmo:42876:1,2022-04-02T04:19:00Z,0.0000,0.0000,2.6,23.6,11111222
Chevron,ioos:station:wmo:42876:1,2022-04-02T04:29:00Z,0.0000,0.0000,2.5,23.6,11111222
Chevron,ioos:station:wmo:42876:1,2022-04-02T04:39:00Z,0.0000,0.0000,2.4,23.6,11111222
Chevron,ioos:station:wmo:42876:1,2022-04-02T04:49:00Z,0.0000,0.0000,2.6,23.6,11111222
Chevron,ioos:station:wmo:42876:1,2022-04-02T04:59:00Z,0.0000,0.0000,2.6,23.6,11111222
Chevron,ioos:station:wmo:42876:1,2022-04-02T05:09:00Z,0.0000,0.0000,2.6,23.6,11111222
Chevron,ioos:station:wmo:42876:1,2022-04-02T05:19:00Z,0.0000,0.0000,2.1,23.6,11111222
Chevron,ioos:station:wmo:42876:1,2022-04-02T05:29:00Z,0.0000,0.0000,2.5,23.6,11111222
Chevron,ioos:station:wmo:42876:1,2022-04-02T05:39:00Z,0.0000,0.0000,2.4,23.6,11111222
Chevron,ioos:station:wmo:42876:1,2022-04-02T05:49:00Z,0.0000,0.0000,2.3,23.6,11111222
Chevron,ioos:station:wmo:42876:1,2022-04-02T05:59:00Z,0.0000,0.0000,2.5,23.6,11111222
Chevron,ioos:station:wmo:42876:1,2022-04-02T06:09:00Z,0.0000,0.0000,2.5,23.6,11111222
Chevron,ioos:station:wmo:42876:1,2022-04-02T06:19:00Z,0.0000,0.0000,2.7,23.6,11111222
Chevron,ioos:station:wmo:42876:1,2022-04-02T06:29:00Z,0.0000,0.0000,2.7,23.6,11111222
Chevron,ioos:station:wmo:42876:1,2022-04-02T06:39:00Z,0.0000,0.0000,2.7,23.6,11111222
Chevron,ioos:station:wmo:42876:1,2022-04-02T06:49:00Z,0.0000,0.0000,2.3,23.7,11111222
Chevron,ioos:station:wmo:42876:1,2022-04-02T06:59:00Z,0.0000,0.0000,2.3,23.7,11111222
Chevron,ioos:station:wmo:42876:1,2022-04-02T07:09:00Z,0.0000,0.0000,2.6,23.7,11111222
Chevron,ioos:station:wmo:42876:1,2022-04-02T07:19:00Z,0.0000,0.0000,2.4,23.7,11111222
Chevron,ioos:station:wmo:42876:1,2022-04-02T07:29:00Z,0.0000,0.0000,2.5,23.7,11111222
Chevron,ioos:station:wmo:42876:1,2022-04-02T07:39:00Z,0.0000,0.0000,2.4,23.7,11111222
Chevron,ioos:station:wmo:42876:1,2022-04-02T07:49:00Z,0.0000,0.0000,2.3,23.7,11111222
Chevron,ioos:station:wmo:42876:1,2022-04-02T07:59:00Z,0.0000,0.0000,2.1,23.7,11111222
Chevron,ioos:station:wmo:42876:1,2022-04-02T08:09:00Z,0.0000,0.0000,2.1,23.7,11111222
Chevron,ioos:station:wmo:42876:1,2022-04-02T08:19:00Z,0.0000,0.0000,2.0,23.7,11111222
Chevron,ioos:station:wmo:42876:1,2022-04-02T08:29:00Z,0.0000,0.0000,2.2,23.7,11111222
Chevron,ioos:station:wmo:42876:1,2022-04-02T08:39:00Z,0.0000,0.0000,2.2,23.7,11111222
Chevron,ioos:station:wmo:42876:1,2022-04-02T08:49:00Z,0.0000,0.0000,1.7,23.7,11111222
Chevron,ioos:station:wmo:42876:1,2022-04-02T08:59:00Z,0.0000,0.0000,2.0,23.7,11111222
Chevron,ioos:station:wmo:42876:1,2022-04-02T09:09:00Z,0.0000,0.0000,2.1,23.7,11111222
Chevron,ioos:station:wmo:42876:1,2022-04-02T09:19:00Z,0.0000,0.0000,2.4,23.7,11111222
Chevron,ioos:station:wmo:42876:1,2022-04-02T09:29:00Z,0.0000,0.0000,2.4,23.7,11111222
Chevron,ioos:station:wmo:42876:1,2022-04-02T09:39:00Z,0.0000,0.0000,2.7,23.7,11111222
Chevron,ioos:station:wmo:42876:1,2022-04-02T09:49:00Z,0.0000,0.0000,2.4,23.7,11111222
Chevron,ioos:station:wmo:42876:1,2022-04-02T09:59:00Z,0.0000,0.0000,2.9,23.7,11111222
Chevron,ioos:station:wmo:42876:1,2022-04-02T10:09:00Z,0.0000,0.0000,2.6,23.7,11111222
Chevron,ioos:station:wmo:42876:1,2022-04-02T10:19:00Z,0.0000,0.0000,2.5,23.7,11111222
Chevron,ioos:station:wmo:42876:1,2022-04-02T10:29:00Z,0.0000,0.0000,2.4,23.7,11111222
Chevron,ioos:station:wmo:42876:1,2022-04-02T10:39:00Z,0.0000,0.0000,2.6,23.7,11111222
Chevron,ioos:station:wmo:42876:1,2022-04-02T10:49:00Z,0.0000,0.0000,2.4,23.7,11111222
Chevron,ioos:station:wmo:42876:1,2022-04-02T10:59:00Z,0.0000,0.0000,2.4,23.7,11111222
Chevron,ioos:station:wmo:42876:1,2022-04-02T11:09:00Z,0.0000,0.0000,2.7,23.7,11111222
Chevron,ioos:station:wmo:42876:1,2022-04-02T11:19:00Z,0.0000,0.0000,2.4,23.7,11111222
Chevron,ioos:station:wmo:42876:1,2022-04-02T11:29:00Z,0.0000,0.0000,2.3,23.7,11111222
Chevron,ioos:station:wmo:42876:1,2022-04-02T11:39:00Z,0.0000,0.0000,2.3,23.7,11111222
Chevron,ioos:station:wmo:42876:1,2022-04-02T11:49:00Z,0.0000,0.0000,2.4,23.7,11111222
Chevron,ioos:station:wmo:42876:1,2022-04-02T11:59:00Z,0.0000,0.0000,2.3,23.7,11111222
Chevron,ioos:station:wmo:42876:1,2022-04-02T12:09:00Z,0.0000,0.0000,2.3,23.7,11111222
Chevron,ioos:station:wmo:42876:1,2022-04-02T12:19:00Z,0.0000,0.0000,2.0,23.7,11111222
Chevron,ioos:station:wmo:42876:1,2022-04-02T12:29:00Z,0.0000,0.0000,2.2,23.7,11111222
Chevron,ioos:station:wmo:42876:1,2022-04-02T12:39:00Z,0.0000,0.0000,1.9,23.7,11111222
Chevron,ioos:station:wmo:42876:1,2022-04-02T12:49:00Z,0.0000,0.0000,2.3,23.7,11111222
Chevron,ioos:station:wmo:42876:1,2022-04-02T12:59:00Z,0.0000,0.0000,2.3,23.7,11111222
Chevron,ioos:station:wmo:42876:1,2022-04-02T13:09:00Z,0.0000,0.0000,2.1,23.7,11111222
Chevron,ioos:station:wmo:42876:1,2022-04-02T13:19:00Z,0.0000,0.0000,2.0,23.7,11111222
Chevron,ioos:station:wmo:42876:1,2022-04-02T13:29:00Z,0.0000,0.0000,2.3,23.7,11111222
Chevron,ioos:station:wmo:42876:1,2022-04-02T13:39:00Z,0.0000,0.0000,2.3,23.7,11111222
Chevron,ioos:station:wmo:42876:1,2022-04-02T13:49:00Z,0.0000,0.0000,2.2,23.7,11111222
Chevron,ioos:station:wmo:42876:1,2022-04-02T13:59:00Z,0.0000,0.0000,2.3,23.7,11111222
Chevron,ioos:station:wmo:42876:1,2022-04-02T14:09:00Z,0.0000,0.0000,2.4,23.7,11111222
Chevron,ioos:station:wmo:42876:1,2022-04-02T14:19:00Z,0.0000,0.0000,1.9,23.7,11111222
Chevron,ioos:station:wmo:42876:1,2022-04-02T14:29:00Z,0.0000,0.0000,2.1,23.7,11111222
Chevron,ioos:station:wmo:42876:1,2022-04-02T14:39:00Z,0.0000,0.0000,1.8,23.7,11111222
Chevron,ioos:station:wmo:42876:1,2022-04-02T14:49:00Z,0.0000,0.0000,2.1,23.7,11111222
Chevron,ioos:station:wmo:42876:1,2022-04-02T14:59:00Z,0.0000,0.0000,2.2,23.7,11111222
Chevron,ioos:station:wmo:42876:1,2022-04-02T15:09:00Z,0.0000,0.0000,2.4,23.7,11111222
Chevron,ioos:station:wmo:42876:1,2022-04-02T15:19:00Z,0.0000,0.0000,2.3,23.7,11111222
Chevron,ioos:station:wmo:42876:1,2022-04-02T15:29:00Z,0.0000,0.0000,2.4,23.7,11111222
Chevron,ioos:station:wmo:42876:1,2022-04-02T15:39:00Z,0.0000,0.0000,2.3,23.7,11111222
Chevron,ioos:station:wmo:42876:1,2022-04-02T15:49:00Z,0.0000,0.0000,2.1,23.7,11111222
Chevron,ioos:station:wmo:42876:1,2022-04-02T15:59:00Z,0.0000,0.0000,1.9,23.7,11111222
Chevron,ioos:station:wmo:42876:1,2022-04-02T16:09:00Z,0.0000,0.0000,2.1,23.7,11111222
Chevron,ioos:station:wmo:42876:1,2022-04-02T16:19:00Z,0.0000,0.0000,2.1,23.7,11111222
Chevron,ioos:station:wmo:42876:1,2022-04-02T16:29:00Z,0.0000,0.0000,2.0,23.7,11111222
Chevron,ioos:station:wmo:42876:1,2022-04-02T16:39:00Z,0.0000,0.0000,2.2,23.7,11111222
Chevron,ioos:station:wmo:42876:1,2022-04-02T16:49:00Z,0.0000,0.0000,1.9,23.7,11111222
Chevron,ioos:station:wmo:42876:1,2022-04-02T16:59:00Z,0.0000,0.0000,2.1,23.7,11111222
Chevron,ioos:station:wmo:42876:1,2022-04-02T17:09:00Z,0.0000,0.0000,2.2,23.8,11111222
Chevron,ioos:station:wmo:42876:1,2022-04-02T17:19:00Z,0.0000,0.0000,2.1,23.8,11111222
Chevron,ioos:station:wmo:42876:1,2022-04-02T17:29:00Z,0.0000,0.0000,2.2,23.8,11111222
Chevron,ioos:station:wmo:42876:1,2022-04-02T17:39:00Z,0.0000,0.0000,2.3,23.8,11111222
Chevron,ioos:station:wmo:42876:1,2022-04-02T17:49:00Z,0.0000,0.0000,2.1,23.8,11111222
Chevron,ioos:station:wmo:42876:1,2022-04-02T17:59:00Z,0.0000,0.0000,2.2,23.8,11111222
Chevron,ioos:station:wmo:42876:1,2022-04-02T18:09:00Z,0.0000,0.0000,2.1,23.8,11111222
Chevron,ioos:station:wmo:42876:1,2022-04-02T18:19:00Z,0.0000,0.0000,2.1,23.8,11111222
Chevron,ioos:station:wmo:42876:1,2022-04-02T18:29:00Z,0.0000,0.0000,2.1,23.8,11111222
Chevron,ioos:station:wmo:42876:1,2022-04-02T18:39:00Z,0.0000,0.0000,2.4,23.8,11111222
Chevron,ioos:station:wmo:42876:1,2022-04-02T18:49:00Z,0.0000,0.0000,1.9,23.8,11111222
Chevron,ioos:station:wmo:42876:1,2022-04-02T18:59:00Z,0.0000,0.0000,2.1,23.8,11111222
Chevron,ioos:station:wmo:42876:1,2022-04-02T19:09:00Z,0.0000,0.0000,2.0,23.8,11111222
Chevron,ioos:station:wmo:42876:1,2022-04-02T19:19:00Z,0.0000,0.0000,2.1,23.8,11111222
Chevron,ioos:station:wmo:42876:1,2022-04-02T19:29:00Z,0.0000,0.0000,1.9,23.8,11111222
Chevron,ioos:station:wmo:42876:1,2022-04-02T19:39:00Z,0.0000,0.0000,1.7,23.8,11111222
Chevron,ioos:station:wmo:42876:1,2022-04-02T19:49:00Z,0.0000,0.0000,1.8,23.9,11111222
Chevron,ioos:station:wmo:42876:1,2022-04-02T19:59:00Z,0.0000,0.0000,1.8,23.8,11111222
Chevron,ioos:station:wmo:42876:1,2022-04-02T20:09:00Z,0.0000,0.0000,1.9,23.8,11111222
Chevron,ioos:station:wmo:42876:1,2022-04-02T20:19:00Z,0.0000,0.0000,1.9,23.9,11111222
Chevron,ioos:station:wmo:42876:1,2022-04-02T20:29:00Z,0.0000,0.0000,1.8,23.8,11111222
Chevron,ioos:station:wmo:42876:1,2022-04-02T20:39:00Z,0.0000,0.0000,2.0,23.9,11111222
Chevron,ioos:station:wmo:42876:1,2022-04-02T20:49:00Z,0.0000,0.0000,2.0,24.0,11111222
Chevron,ioos:station:wmo:42876:1,2022-04-02T20:59:00Z,0.0000,0.0000,1.9,23.9,11111222
Chevron,ioos:station:wmo:42876:1,2022-04-02T21:09:00Z,0.0000,0.0000,1.7,24.0,11111222
Chevron,ioos:station:wmo:42876:1,2022-04-02T21:19:00Z,0.0000,0.0000,2.2,24.1,11111222
Chevron,ioos:station:wmo:42876:1,2022-04-02T21:29:00Z,0.0000,0.0000,2.0,24.1,11111222
Chevron,ioos:station:wmo:42876:1,2022-04-02T21:39:00Z,0.0000,0.0000,2.0,24.1,11111222